TEVEL2-6

Last updated on Mon Nov 03 2025 00:03:22 GMT+0000 (Coordinated Universal Time)

1 63215U 25052F 25306.20361624 .00016964 00000+0 68253-3 0 9993 2 63215 97.4123 198.3530 0003011 148.3855 211.7564 15.24958298 35404
UTC large
Height (km)
Speed (km/s)
/
Latitude / Longitude
Inclination (degrees)
Orbital Period (minutes)
Azimuth
Elevation
Range (km)
Doppler Factor

Next 0 passes for location: London (51.5072 / 0.1276)

Sorry there are no passes over London.